TITAN 3C TRANSTAGE R/B, 2222

Orbit data source: Space-Track

TITAN 3C TRANSTAGE R/B, 2222 is space debris in GEO originally from a launch on Thu, 16 Jun 1966 UTC launched from the Air Force Eastern Test Range (AFETR). Debris objects in space refer to the collection of defunct objects orbiting the Earth. Examples of debris include non-operational satellites, rocket bodies, and fragments generated from explosions, collisions, or faulty payload assembly.

Loading next visibility...
Identifier
2222, 1966-053J
Orbit
GEO
Last TLE update
13 hours ago
Origin
Manufacturer
Martin Marietta
Mission
Spacecraft
Bus & Motor
TRANSTAGE, Unknown motor
Mass
2,050 kg wet, 2,050 kg dry
Launch date (UTC)
1966-06-16 (59 years ago)
Launch vehicle
Unknown
Launch site
Air Force Eastern Test Range (AFETR)
Object type
Payload
Rocket body
Debris
Shape & HBR
Cyl + 2 Nozzle, 4.6 m
Radar Cross Section
14.974 m², Large (>1 m²)

Expand to show TLE details & history

TLE from 13 hours ago
0 TITAN 3C TRANSTAGE R/B
1 02222U 66053J   25191.49362565 -.00000053  00000-0  00000-0 0  9995
2 02222   7.7328  51.1231 0163067 160.7176  51.3293  1.06720953126736
Epoch: 2025-07-10T11:50Z
TLE epoch observation values (Epoch: 2025-07-10T11:50:49.256Z)
Latitude
-4.27776°
Longitude
158.03752°
Altitude
33,665.588 km
Speed
3.171 km/s
True Right ascension
17h 37m 36s
True Declination
-4° 16' 24"
Sunlit
Object was in daylight at epoch
Visualization orbit readout
Latitude
6.00128°
Longitude
-4.78129°
Altitude
34,285.815 km
Speed
3.123 km/s
Apparent Right ascension
06h 18m 36s
Apparent Declination
0° 14' 56"
Sunlit
Object is in daylight
Visualization observer readout
Local Sidereal Time
12:38:13
Azimuth
273.343° WNW
Elevation
-3.601°
Doppler factor
1
Orbital elements
Apogee altitude
34,731.011 km
Perigee altitude
33,411.814 km
Semi-major axis
40,449.549 km
Eccentricity
0.01631
Inclination
7.7328°
RAAN
51.1231°
Arg. of periapsis
160.7176°
True anomaly
Unknown
Mean anomaly
51.3293°
Eccentric anomaly
Unknown
Mean motion
0.26679 °/min
Orbital period
1,349.37 mins
BSTAR
0
Loading historical data...
2222 neighbors
Loading maneuver chart data...
Loading SW <> Apogee altitude chart data...
Loading historical data...
Loading historical data...
Loading historical data...
Loading historical data...
Loading historical data...
Loading historical data...
Loading historical data...

TITAN 3C TRANSTAGE R/B Visibility forecast

Observer location: undefined°, undefined°

Span
Click to sort rows by Start time (UTC) header in descending order
Start Az.
Max El. time (UTC)
Max El. Az.
Max El.
End time (UTC)
End Az.
204 mins2025-07-11 20:58:00.514Z257.25° W2025-07-12 00:22:00.514Z259.176° W14.817°2025-07-12 00:22:00.514Z259.176° W
|